Weather History for Lakeville, MN

Change the Weather History Date:

Friday, January 18, 2013

  Actual Average Record
Temperature  
Mean Temperature 27 °F -  
Max Temperature 39 °F 21 °F 46 °F (1981)
Min Temperature 15 °F 4 °F -34 °F (1970)
Degree Days  
Heating Degree Days 38    
Moisture  
Dew Point 24 °F    
Average Humidity 79    
Maximum Humidity 93    
Minimum Humidity 65    
Precipitation  
Precipitation 0.00 in - - ()
Sea Level Pressure  
Sea Level Pressure 29.89 in    
Wind  
Wind Speed 7 mph (SSW)    
Max Wind Speed 13 mph    
Max Gust Speed 18 mph    
Visibility 10 miles    
Events Snow    
Averages and records for this station are not official NWS values.
T = Trace of Precipitation, MM = Missing Value Source: NWS Daily Summary

Daily Weather History Graph

Daily Weather History Graph

Search for Another Location

Airport:

Trip Planner

Search our weather history database for the weather conditions in past years. The results will help you decide how hot, cold, wet, or windy it might be!

Date:

Astronomy

Jan. 18, 2013 Rise Set
Actual Time 7:44 AM CST 5:02 PM CST
Civil Twilight 7:12 AM CST 5:35 PM CST
Nautical Twilight 6:36 AM CST 6:11 PM CST
Astronomical Twilight 6:01 AM CST 6:45 PM CST
Moon 11:02 AM CST (1/18) 12:13 AM CST (1/18)
Length of Visible Light 10h 23m
Length of Day
9h 18m
Waxing Crescent, 47% of the Moon is Illuminated
Jan 18
Waxing Crescent
Jan 18
First Quarter
Jan 26
Full
Feb 3
Last Quarter
Feb 10
New

Hourly Weather History & Observations

Time (CST) Temp. Windchill Dew Point Humidity Pressure Visibility Wind Dir Wind Speed Gust Speed Precip Events Conditions
12:09 AM 15.8 °F 10.2 °F 10.4 °F 79% 30.27 in 10.0 mi SSE 3.5 mph - N/A   Overcast
12:29 AM 15.8 °F 10.2 °F 10.4 °F 79% 30.26 in 10.0 mi SSE 3.5 mph - N/A   Mostly Cloudy
12:50 AM 15.8 °F 8.6 °F 12.2 °F 86% 30.24 in 2.5 mi ESE 4.6 mph - N/A Snow Light Snow
1:09 AM 15.8 °F 10.2 °F 12.2 °F 86% 30.24 in 5.0 mi ESE 3.5 mph - N/A Snow Light Snow
1:29 AM 15.8 °F 6.1 °F 12.2 °F 86% 30.23 in 3.0 mi SE 6.9 mph - N/A Snow Light Snow
1:50 AM 15.8 °F 5.1 °F 12.2 °F 86% 30.20 in 10.0 mi SE 8.1 mph - N/A   Overcast
2:09 AM 17.6 °F 6.4 °F 12.2 °F 79% 30.19 in 10.0 mi ESE 9.2 mph - N/A   Overcast
2:29 AM 17.6 °F 7.3 °F 12.2 °F 79% 30.18 in 10.0 mi ESE 8.1 mph - N/A   Overcast
2:50 AM 17.6 °F 8.2 °F 14.0 °F 86% 30.16 in 10.0 mi SE 6.9 mph - N/A   Overcast
3:09 AM 17.6 °F 5.7 °F 14.0 °F 86% 30.14 in 10.0 mi ESE 10.4 mph - N/A   Overcast
3:29 AM 17.6 °F 6.4 °F 15.8 °F 93% 30.12 in 10.0 mi SE 9.2 mph - N/A   Scattered Clouds
3:50 AM 17.6 °F 5.7 °F 14.0 °F 86% 30.10 in 10.0 mi ESE 10.4 mph - N/A   Mostly Cloudy
4:09 AM 17.6 °F 5.7 °F 15.8 °F 93% 30.09 in 10.0 mi ESE 10.4 mph - N/A   Scattered Clouds
4:29 AM 19.4 °F 8.6 °F 14.0 °F 80% 30.07 in 10.0 mi SE 9.2 mph - N/A   Scattered Clouds
4:50 AM 19.4 °F 8.6 °F 14.0 °F 80% 30.05 in 10.0 mi SE 9.2 mph - N/A   Clear
5:09 AM 19.4 °F 8.6 °F 15.8 °F 86% 30.04 in 10.0 mi SE 9.2 mph - N/A   Scattered Clouds
5:29 AM 21.2 °F 10.1 °F 15.8 °F 80% 30.02 in 10.0 mi SSE 10.4 mph - N/A   Scattered Clouds
5:50 AM 21.2 °F 10.9 °F 17.6 °F 86% 29.99 in 10.0 mi SE 9.2 mph - N/A   Clear
6:09 AM 21.2 °F 12.6 °F 17.6 °F 86% 29.98 in 10.0 mi SE 6.9 mph - N/A   Clear
6:29 AM 21.2 °F 13.6 °F 19.4 °F 93% 29.96 in 10.0 mi SSE 5.8 mph - N/A   Clear
6:50 AM 23.0 °F 18.4 °F 19.4 °F 86% 29.95 in 10.0 mi SSE 3.5 mph - N/A   Clear
7:09 AM 24.8 °F 16.9 °F 21.2 °F 86% 29.93 in 10.0 mi SSE 6.9 mph - N/A   Clear
7:29 AM 24.8 °F 16.1 °F 21.2 °F 86% 29.91 in 10.0 mi South 8.1 mph - N/A   Clear
7:50 AM 26.6 °F 18.2 °F 23.0 °F 86% 29.89 in 10.0 mi South 8.1 mph - N/A   Clear
8:09 AM 28.4 °F 20.4 °F 24.8 °F 86% 29.89 in 10.0 mi South 8.1 mph - N/A   Clear
8:29 AM 28.4 °F 19.7 °F 24.8 °F 86% 29.88 in 10.0 mi South 9.2 mph - N/A   Clear
8:50 AM 28.4 °F 19.1 °F 24.8 °F 86% 29.86 in 10.0 mi South 10.4 mph - N/A   Clear
9:09 AM 30.2 °F 21.3 °F 24.8 °F 80% 29.85 in 10.0 mi South 10.4 mph - N/A   Clear
9:29 AM 30.2 °F 22.6 °F 26.6 °F 86% 29.84 in 10.0 mi SSW 8.1 mph - N/A   Clear
9:50 AM 33.8 °F 27.0 °F 26.6 °F 75% 29.84 in 10.0 mi South 8.1 mph - N/A   Clear
10:09 AM 35.6 °F 30.7 °F 26.6 °F 70% 29.83 in 10.0 mi SW 5.8 mph - N/A   Clear
10:29 AM 35.6 °F 31.7 °F 26.6 °F 70% 29.82 in 10.0 mi SSW 4.6 mph - N/A   Clear
10:49 AM 37.4 °F 31.4 °F 26.6 °F 65% 29.82 in 10.0 mi WSW 8.1 mph - N/A   Clear
11:09 AM 37.4 °F 32.8 °F 28.4 °F 70% 29.81 in 10.0 mi SW 5.8 mph - N/A   Clear
11:29 AM 37.4 °F 32.1 °F 28.4 °F 70% 29.79 in 10.0 mi SW 6.9 mph - N/A   Clear
11:49 AM 37.4 °F 31.4 °F 28.4 °F 70% 29.77 in 10.0 mi SW 8.1 mph - N/A   Clear
12:09 PM 37.4 °F 32.1 °F 28.4 °F 70% 29.76 in 10.0 mi SW 6.9 mph - N/A   Clear
12:29 PM 39.2 °F 33.6 °F 28.4 °F 65% 29.75 in 10.0 mi WSW 8.1 mph - N/A   Clear
12:49 PM 39.2 °F 33.0 °F 28.4 °F 65% 29.73 in 10.0 mi SW 9.2 mph - N/A   Clear
1:09 PM 39.2 °F 33.0 °F 28.4 °F 65% 29.74 in 10.0 mi WSW 9.2 mph 16.1 mph N/A   Clear
1:29 PM 39.2 °F 34.2 °F 30.2 °F 70% 29.73 in 10.0 mi WSW 6.9 mph - N/A   Clear
1:49 PM 39.2 °F 33.6 °F 30.2 °F 70% 29.73 in 10.0 mi WSW 8.1 mph - N/A   Clear
2:09 PM 39.2 °F 35.9 °F 30.2 °F 70% 29.73 in 10.0 mi WSW 4.6 mph - N/A   Clear
2:29 PM 39.2 °F 34.2 °F 30.2 °F 70% 29.73 in 10.0 mi West 6.9 mph - N/A   Clear
2:49 PM 39.2 °F 34.2 °F 30.2 °F 70% 29.74 in 10.0 mi West 6.9 mph - N/A   Clear
3:09 PM 39.2 °F 33.6 °F 30.2 °F 70% 29.73 in 10.0 mi WSW 8.1 mph - N/A   Clear
3:29 PM 39.2 °F 33.0 °F 30.2 °F 70% 29.74 in 10.0 mi West 9.2 mph - N/A   Clear
3:49 PM 39.2 °F 32.5 °F 28.4 °F 65% 29.74 in 10.0 mi WSW 10.4 mph 17.3 mph N/A   Clear
4:09 PM 37.4 °F 29.3 °F 28.4 °F 70% 29.74 in 10.0 mi WSW 12.7 mph 17.3 mph N/A   Clear
4:29 PM 37.4 °F 29.3 °F 28.4 °F 70% 29.75 in 10.0 mi West 12.7 mph 16.1 mph N/A   Clear
4:49 PM 37.4 °F 29.8 °F 28.4 °F 70% 29.75 in 10.0 mi West 11.5 mph 16.1 mph N/A   Clear
5:09 PM 35.6 °F 28.6 °F 28.4 °F 75% 29.75 in 10.0 mi WSW 9.2 mph 18.4 mph N/A   Clear
5:29 PM 35.6 °F 28.6 °F 28.4 °F 75% 29.76 in 10.0 mi WSW 9.2 mph - N/A   Clear
5:49 PM 35.6 °F 29.2 °F 28.4 °F 75% 29.76 in 10.0 mi WSW 8.1 mph - N/A   Clear
6:09 PM 33.8 °F 27.0 °F 28.4 °F 81% 29.77 in 10.0 mi West 8.1 mph - N/A   Clear
6:29 PM 33.8 °F 27.0 °F 28.4 °F 81% 29.77 in 10.0 mi WSW 8.1 mph - N/A   Clear
6:49 PM 33.8 °F 27.7 °F 28.4 °F 81% 29.78 in 10.0 mi WSW 6.9 mph - N/A   Clear
7:09 PM 33.8 °F 27.7 °F 28.4 °F 81% 29.79 in 10.0 mi West 6.9 mph - N/A   Clear
7:29 PM 33.8 °F 27.7 °F 28.4 °F 81% 29.79 in 10.0 mi WSW 6.9 mph - N/A   Clear
7:49 PM 32.0 °F 25.6 °F 28.4 °F 87% 29.79 in 10.0 mi WSW 6.9 mph - N/A   Clear
8:09 PM 32.0 °F 24.8 °F 28.4 °F 87% 29.79 in 10.0 mi WSW 8.1 mph - N/A   Clear
8:29 PM 33.8 °F 26.4 °F 26.6 °F 75% 29.79 in 10.0 mi West 9.2 mph - N/A   Clear
8:49 PM 33.8 °F 27.0 °F 26.6 °F 75% 29.79 in 10.0 mi West 8.1 mph - N/A   Clear
9:09 PM 33.8 °F 27.7 °F 26.6 °F 75% 29.79 in 10.0 mi West 6.9 mph - N/A   Clear
9:29 PM 33.8 °F 27.7 °F 28.4 °F 81% 29.79 in 10.0 mi West 6.9 mph - N/A   Clear
9:49 PM 32.0 °F 25.6 °F 28.4 °F 87% 29.78 in 10.0 mi WSW 6.9 mph - N/A   Clear
10:09 PM 30.2 °F 24.3 °F 26.6 °F 86% 29.78 in 10.0 mi West 5.8 mph - N/A   Clear
10:29 PM 30.2 °F 24.3 °F 26.6 °F 86% 29.77 in 10.0 mi WSW 5.8 mph - N/A   Clear
10:50 PM 30.2 °F 25.4 °F 26.6 °F 86% 29.78 in 10.0 mi WSW 4.6 mph - N/A   Clear
11:09 PM 30.2 °F - 26.6 °F 86% 29.77 in 10.0 mi Calm Calm - N/A   Clear
11:29 PM 28.4 °F - 26.6 °F 93% 29.78 in 10.0 mi Calm Calm - N/A   Clear